Change the Weather History Date:

Thursday, October 3, 2013

  Actual Average Record
Temperature  
Mean Temperature 53 °F 57 °F  
Max Temperature 55 °F 71 °F 94 °F (2012)
Min Temperature 50 °F 42 °F 24 °F (1899)
Degree Days  
Heating Degree Days 12 9  
Month to date heating degree days 14 26  
Cooling Degree Days 0 1  
Month to date cooling degree days 0 3  
Year to date cooling degree days 1166 960  
Growing Degree Days 2 (Base 50)    
Moisture  
Dew Point 49 °F    
Average Humidity 81    
Maximum Humidity 100    
Minimum Humidity 61    
Precipitation  
Precipitation 0.05 in 0.04 in 0.87 in (1990)
Sea Level Pressure  
Sea Level Pressure 29.77 in    
Wind  
Wind Speed 11 mph (NNE)    
Max Wind Speed 16 mph    
Max Gust Speed 22 mph    
Visibility 4 miles    
Events Fog , Rain    
T = Trace of Precipitation, MM = Missing Value Source: NWS Daily Summary

Daily Weather History Graph

Daily Weather History Graph

Search for Another Location

Airport or City:

Trip Planner

Search our weather history database for the weather conditions in past years. The results will help you decide how hot, cold, wet, or windy it might be!

Date:

Astronomy

Oct. 03, 2013 Rise Set
Actual Time 6:45 AM MDT 6:24 PM MDT
Civil Twilight 6:18 AM MDT 6:52 PM MDT
Nautical Twilight 5:46 AM MDT 7:23 PM MDT
Astronomical Twilight 5:14 AM MDT 7:55 PM MDT
Moon 5:20 AM MDT (10/3) 5:34 PM MDT (10/3)
Length of Visible Light 12h 34m
Length of Day
11h 39m
Waning Crescent, 2% of the Moon is Illuminated
Oct 3
Waning Crescent
Oct 4
New
Oct 11
First Quarter
Oct 18
Full
Oct 26
Last Quarter

Hourly Weather History & Observations

Time (MDT) Temp. Dew Point Humidity Pressure Visibility Wind Dir Wind Speed Gust Speed Precip Events Conditions
12:53 AM 55.0 °F 42.1 °F 62% 29.75 in 10.0 mi NE 9.2 mph - N/A   Clear
1:53 AM 55.0 °F 42.1 °F 62% 29.74 in 10.0 mi ENE 9.2 mph - N/A   Clear
2:53 AM 54.0 °F 43.0 °F 66% 29.71 in 10.0 mi ENE 9.2 mph - N/A   Clear
3:53 AM 52.0 °F 43.0 °F 71% 29.71 in 10.0 mi NNE 5.8 mph - N/A   Partly Cloudy
4:05 AM 51.8 °F 42.8 °F 71% 29.78 in 10.0 mi NE 5.8 mph - N/A   Mostly Cloudy
4:19 AM 51.8 °F 42.8 °F 71% 29.78 in 10.0 mi North 5.8 mph - N/A   Mostly Cloudy
4:53 AM 52.0 °F 43.0 °F 71% 29.72 in 10.0 mi NNW 5.8 mph - N/A   Overcast
5:53 AM 53.1 °F 44.1 °F 71% 29.73 in 10.0 mi North 6.9 mph - N/A   Overcast
6:53 AM 52.0 °F 46.0 °F 80% 29.75 in 10.0 mi North 9.2 mph - N/A   Overcast
7:47 AM 50.0 °F 48.2 °F 94% 29.82 in 2.5 mi NNW 10.4 mph - N/A   Overcast
7:53 AM 50.0 °F 48.0 °F 93% 29.78 in 2.5 mi NNW 12.7 mph - N/A   Overcast
8:53 AM 51.1 °F 48.9 °F 92% 29.79 in 3.0 mi North 11.5 mph - N/A   Overcast
9:53 AM 53.1 °F 50.0 °F 89% 29.79 in 8.0 mi North 12.7 mph - N/A   Overcast
10:12 AM 51.8 °F 50.0 °F 94% 29.82 in 1.8 mi North 13.8 mph - N/A   Overcast
10:39 AM 51.8 °F 51.8 °F 100% 29.82 in 1.2 mi North 15.0 mph - N/A   Overcast
10:53 AM 52.0 °F 50.0 °F 93% 29.80 in 1.2 mi North 13.8 mph 20.7 mph N/A   Overcast
11:53 AM 52.0 °F 51.1 °F 97% 29.78 in 1.0 mi North 12.7 mph - 0.01 in Rain Light Rain
12:53 PM 52.0 °F 51.1 °F 97% 29.78 in 1.2 mi NNE 15.0 mph - 0.00 in   Overcast
1:53 PM 52.0 °F 50.0 °F 93% 29.77 in 2.5 mi NNE 11.5 mph - N/A   Overcast
2:10 PM 51.8 °F 50.0 °F 94% 29.79 in 3.0 mi NNE 13.8 mph - N/A   Overcast
2:53 PM 52.0 °F 50.0 °F 93% 29.76 in 5.0 mi NNE 11.5 mph - N/A   Overcast
3:53 PM 53.1 °F 51.1 °F 93% 29.77 in 5.0 mi NNE 12.7 mph - N/A   Overcast
4:26 PM 51.8 °F 51.8 °F 100% 29.78 in 4.0 mi NNE 11.5 mph - N/A   Overcast
4:53 PM 52.0 °F 51.1 °F 97% 29.77 in 4.0 mi NNE 8.1 mph - N/A   Overcast
5:10 PM 51.8 °F 51.8 °F 100% 29.78 in 2.5 mi NE 10.4 mph - N/A   Overcast
5:25 PM 51.8 °F 51.8 °F 100% 29.78 in 1.5 mi NE 11.5 mph - N/A   Overcast
5:53 PM 52.0 °F 51.1 °F 97% 29.77 in 2.0 mi NNE 11.5 mph - N/A   Overcast
6:34 PM 51.8 °F 51.8 °F 100% 29.79 in 1.8 mi NNE 12.7 mph - N/A   Overcast
6:53 PM 52.0 °F 52.0 °F 100% 29.78 in 1.2 mi NE 11.5 mph - N/A   Overcast
7:53 PM 53.1 °F 52.0 °F 96% 29.77 in 1.0 mi ENE 11.5 mph - N/A   Mist
8:13 PM 53.6 °F 51.8 °F 94% 29.78 in 0.8 mi NE 10.4 mph - N/A   Mist
8:24 PM 53.6 °F 53.6 °F 100% 29.78 in 1.0 mi NE 9.2 mph - N/A   Mist
8:37 PM 53.6 °F 53.6 °F 100% 29.78 in 0.8 mi NE 10.4 mph - N/A   Mist
8:53 PM 53.1 °F 53.1 °F 100% 29.77 in 0.8 mi NE 10.4 mph 16.1 mph N/A   Mist
9:09 PM 53.6 °F 53.6 °F 100% 29.77 in 1.0 mi NE 9.2 mph - N/A   Mist
10:43 PM 53.6 °F 53.6 °F 100% 29.74 in 0.8 mi NE 13.8 mph - N/A   Mist
10:53 PM 54.0 °F 53.1 °F 97% 29.73 in 0.5 mi NE 16.1 mph 21.9 mph N/A Fog Fog
11:53 PM 53.1 °F 53.1 °F 100% 29.70 in 0.5 mi NE 12.7 mph - 0.01 in Fog , Rain Light Rain